Regional Weather Roundup
Issued by NWS

Home | Current Version | Previous Version | Text Only | Print | Product List | Glossary Off
Versions: 1 2 3 4 5 6 7 8 9 10 11 12 13 14 15 16 17 18 19 20 21 22 23 24 25 26 27 28 29 30 31 32 33 34 35 36 37 38 39 40 41 42 43 44 45 46 47 48 49 50

586
ASUS45 KCYS 071110
RWRWY

WYOMING REGIONAL WEATHER ROUNDUP
NATIONAL WEATHER SERVICE CHEYENNE WY
400 AM MST WED DEC 07 2016

NOTE:  "FAIR" INDICATES FEW OR NO CLOUDS BELOW 12,000 FEET
WITH NO SIGNIFICANT WEATHER AND/OR OBSTRUCTIONS TO VISIBILITY.

WYZ001-071200-
YELLOWSTONE NATIONAL PARK

CITY           SKY/WX    TMP DP  RH WIND       PRES   REMARKS
LK YELLOWSTONE   N/A     -7 -10  87 N3        29.91R
W YELLOWSTONE  NOT AVBL

$$
WYZ002>013-054>058-071-098>099-071200-
NORTHERN WYOMING

CITY           SKY/WX    TMP DP  RH WIND       PRES   REMARKS
JACKSON        CLOUDY    -8  -9  92 N7        29.97R WCI -22
CODY           FLURRIES   0  -5  79 NE8       30.13R WCI -14
GREYBULL       CLOUDY     7   1  76 N9        30.19R WCI  -7
WORLAND        CLOUDY     9   2  73 NW9       30.17R WCI  -4
SHERIDAN       CLOUDY     1  -6  72 NW15      30.26R WCI -18
BUFFALO        CLOUDY    -1  -8  72 NW8       30.14R WCI -15
GILLETTE       CLOUDY    -1  -4  87 N9        30.17R WCI -16
HULETT         CLOUDY     1  -4  78 NW7       30.18R WCI -11
NEWCASTLE      CLOUDY     3  -4  72 NW14      30.16R WCI -15

$$
WYZ014>020-022>026-101>103-071200-
CENTRAL WYOMING

CITY           SKY/WX    TMP DP  RH WIND       PRES   REMARKS
BIG PINEY      CLOUDY     0  -3  87 CALM      29.91R
PINEDALE       LGT SNOW   5   1  85 E7        29.92R WCI  -7
DUBOIS         CLOUDY    -4  -9  77 NW7       29.91R WCI -18
LANDER         LGT SNOW   5   2  87 E5        30.04R FOG     WCI  -4
RIVERTON       LGT SNOW   5   1  83 SE5       30.06R FOG     WCI  -4
CASPER         CLOUDY    -9 -12  87 NE6       30.09R WCI -22
DOUGLAS        FLURRIES   1  -5  75 N6        30.12R WCI -10

$$
WYZ021-027>030-104>119-071200-
SOUTHERN WYOMING

CITY           SKY/WX    TMP DP  RH WIND       PRES   REMARKS
EVANSTON       FAIR       4  -2  76 W7        29.92R WCI  -8
FORT BRIDGER   PTSUNNY    7   1  78 W10       29.94R WCI  -8
ROCK SPRINGS   LGT SNOW   5   3  91 E7        29.92S FOG     WCI  -7
DIXON          CLOUDY    11   3  71 NW3       29.95R
RAWLINS        CLOUDY     1  -4  79 N7        29.92R WCI -12
SARATOGA       FLURRIES   3   0  85 NW3       29.89R
LARAMIE        MOCLDY     5  -1  76 SE8       29.82R WCI  -8
CHEYENNE       LGT SNOW   3  -2  79 N8        29.95R WCI -10
TORRINGTON     LGT SNOW   7   1  76 N10       30.12R WCI  -8
PINE BLUFFS    CLOUDY     7   3  85 N14G23    30.02R WCI -10

$$




USA.gov is the U.S. government's official web portal to all federal, state and local government web resources and services.